Wetbulb
58.91 59.21 58.96 58.83 58.75 58.64 58.58 58.53 58.46 58.28 58.25 57.86 58.51 58.52 58.85 59.26 58.90 54.56 48.86 52.77 55.13 59.71 59.41 54.62 53.13 52.07 50.50 47.16 48.02 44.23 36.96 32.54 34.52 36.05 38.97 44.70 44.67 49.24 49.18 51.83 49.78 52.25 53.35 55.68 58.99
57.65 58.72 59.06 58.80 58.54 58.47 58.44 58.40 58.55 58.54 58.07 57.81 58.39 58.85 58.95 58.79 53.57 50.14 55.59 59.49 60.07 60.46 53.66 51.28 48.14 49.51 45.28 43.93 45.60 42.84 35.60 36.16 39.39 37.80 39.57 44.78 43.26 48.14 49.39 49.53 49.97 52.83 54.25 55.41 55.91
57.31 57.48 58.40 58.80 58.64 58.64 58.31 58.10 58.38 58.59 58.45 57.68 57.75 58.58 58.86 56.78 47.32 46.87 58.27 60.30 60.64 59.58 55.16 53.69 52.29 50.08 44.51 42.63 43.04 41.95 38.23 40.30 42.03 43.55 44.32 44.77 44.68 47.17 46.97 46.59 50.59 52.21 53.67 52.69 54.77
57.02 57.53 57.57 58.53 58.64 58.56 58.29 58.05 58.36 58.35 58.38 57.81 57.27 58.23 57.93 51.95 35.15 48.79 58.72 60.45 61.16 58.61 54.08 52.47 50.40 45.32 41.53 39.61 42.82 38.38 42.38 43.46 44.21 44.12 43.72 43.29 45.13 43.74 47.02 49.31 49.16 53.62 53.64 52.91 53.92
57.23 57.33 57.39 57.98 58.48 58.30 58.03 57.79 58.09 58.29 57.94 57.99 56.97 57.85 53.05 45.60 44.72 51.82 57.99 57.82 57.32 55.86 51.91 50.11 46.93 44.63 40.32 41.00 41.53 39.12 40.36 43.53 45.27 43.79 43.09 44.46 43.58 42.60 45.08 48.14 54.47 55.59 53.08 52.67 53.15
56.76 56.85 57.22 57.79 58.08 57.94 57.61 57.41 57.89 58.28 57.67 57.90 56.89 57.10 47.63 39.28 49.37 52.10 53.96 54.97 54.16 53.32 50.94 50.39 47.40 47.75 43.41 43.56 40.36 40.19 41.76 42.87 43.33 42.93 43.49 42.34 42.40 42.96 45.12 52.56 53.98 54.59 52.89 52.10 52.15
56.48 56.45 56.73 57.12 57.70 57.65 57.26 57.06 57.81 57.83 57.06 57.72 57.13 51.33 45.45 43.71 50.20 50.86 54.17 52.36 54.16 52.37 49.42 51.29 51.05 46.14 44.45 43.24 44.40 41.96 38.23 39.35 40.41 41.13 41.48 41.70 40.01 40.78 45.14 52.62 52.15 53.12 53.69 52.72 52.42
55.86 56.19 55.89 56.43 56.87 57.04 56.87 56.78 57.39 56.65 56.62 56.75 57.27 47.24 40.69 51.20 51.50 51.43 50.04 51.76 52.88 53.09 51.77 51.99 52.77 48.64 46.10 44.62 41.12 38.82 36.91 31.66 37.88 39.66 41.40 41.22 33.98 41.95 47.69 51.60 50.66 51.42 52.03 52.84 52.33
54.70 55.17 55.32 55.75 56.04 56.39 56.38 56.55 57.01 56.46 56.73 56.59 46.32 43.32 39.79 51.72 47.48 50.52 48.62 48.72 50.65 51.74 51.88 52.56 50.35 46.55 44.83 38.25 34.97 36.85 26.96 30.44 34.53 39.34 39.34 39.39 34.87 41.48 47.57 50.36 49.35 50.06 50.88 51.97 52.07
54.05 53.92 54.34 54.44 55.42 55.75 55.98 55.92 55.59 54.32 53.08 54.55 50.77 39.44 42.43 42.32 47.09 49.65 49.39 49.82 47.27 47.71 46.43 45.53 43.85 41.51 40.67 38.10 28.05 28.23 26.83 29.69 30.96 35.09 37.20 35.36 36.62 40.54 42.71 47.97 48.30 48.88 49.51 50.87 51.84
53.77 53.21 53.36 54.11 55.10 55.33 52.42 46.66 40.93 39.13 42.59 39.87 39.98 40.60 43.85 46.88 50.16 45.97 50.04 47.97 46.32 44.91 37.50 40.80 37.12 34.25 36.54 38.42 38.46 34.26 30.69 29.96 31.80 37.41 35.15 35.35 36.36 39.96 40.81 42.56 44.61 46.85 48.53 49.99 50.79
53.56 53.22 52.96 52.86 54.56 54.96 49.18 42.05 41.11 42.66 35.87 43.79 43.65 43.88 46.07 46.78 43.39 44.69 49.34 42.25 39.28 37.08 40.06 37.44 33.36 38.39 39.75 39.71 38.10 35.50 30.70 29.27 33.06 36.83 36.39 34.77 35.84 39.25 39.22 41.03 43.25 45.59 46.36 48.00 48.43
52.91 53.32 53.04 52.54 53.81 49.39 44.99 43.53 48.09 46.54 36.97 40.40 43.90 42.89 44.14 46.75 42.18 42.97 45.39 44.04 38.18 35.32 37.30 33.53 35.57 39.73 38.12 37.32 35.31 35.02 30.97 29.03 31.24 33.74 35.06 33.83 32.66 35.36 37.43 38.45 40.22 43.31 45.07 46.33 47.73
52.87 53.12 52.86 52.52 47.71 45.27 43.75 47.85 48.49 44.58 27.18 32.68 39.40 42.99 45.39 45.47 40.47 46.85 47.71 43.84 40.27 35.02 35.36 35.68 38.74 37.48 35.59 35.56 36.98 31.86 36.09 34.66 33.51 30.68 25.88 32.96 23.94 31.61 35.03 37.18 38.72 40.12 41.53 44.38 45.95
52.75 53.25 52.54 51.40 43.24 43.37 46.14 48.32 47.08 39.74 13.63 34.18 39.37 47.69 44.93 40.92 41.05 42.83 48.36 44.17 37.02 37.23 35.25 32.12 34.98 36.09 35.60 34.89 38.13 35.03 37.30 34.86 32.89 29.70 25.90 28.20 24.53 29.26 32.68 34.39 36.50 38.59 39.26 41.37 43.79
52.63 52.75 52.20 49.01 47.86 46.02 47.87 46.27 41.46 25.83 13.48 31.19 39.26 38.48 38.26 39.95 40.10 42.72 43.35 45.32 43.60 38.32 37.54 36.34 40.72 37.79 38.38 38.23 40.30 39.54 36.45 34.73 32.33 28.51 20.93 26.15 25.34 27.59 30.81 35.48 37.02 38.00 39.08 40.23 41.35
52.72 52.59 50.64 48.47 42.59 47.18 46.54 41.08 27.84 17.51 31.52 30.66 32.96 37.45 36.44 35.63 37.60 39.16 37.87 37.67 35.34 31.01 32.01 34.24 36.38 37.80 39.20 35.73 37.35 35.51 33.37 21.05 20.79 19.89 21.24 24.81 23.26 28.76 30.09 31.66 33.06 34.95 36.99 38.01 39.54
53.05 52.44 50.81 48.57 47.11 46.28 41.34 32.71 17.96 27.15 28.93 34.73 34.08 34.69 33.61 35.69 35.58 37.43 35.42 33.63 37.05 35.11 32.07 29.11 26.44 33.45 36.87 34.93 31.96 32.61 31.95 22.48 19.77 19.72 20.39 24.77 22.68 29.89 30.69 34.08 35.96 36.97 36.98 36.34 38.00
51.49 43.59 44.91 46.21 47.53 43.89 36.99 23.35 25.26 27.93 32.96 32.56 33.82 29.48 29.55 33.74 33.80 34.40 33.32 30.48 32.38 35.41 30.27 30.06 27.68 35.68 38.03 37.56 35.08 33.44 28.18 32.02 26.54 19.14 17.91 21.38 26.93 31.43 31.85 34.87 36.18 36.06 36.15 37.17 37.94
44.37 43.13 43.54 47.05 46.04 40.16 34.03 31.86 29.62 34.25 35.49 34.35 28.69 29.12 26.73 30.15 29.96 30.82 29.58 32.59 33.92 35.33 34.85 34.26 28.46 34.38 38.10 38.22 38.89 34.44 34.95 28.39 27.66 22.11 19.03 18.63 21.14 23.67 27.95 31.93 35.81 35.63 36.12 37.57 39.26
44.22 40.53 44.05 46.00 43.45 37.50 28.84 29.22 33.02 37.50 37.26 33.68 29.95 29.45 30.13 29.74 30.41 29.31 28.76 32.58 34.80 34.42 34.41 31.54 30.46 30.84 35.88 32.63 32.93 34.41 30.37 31.23 28.64 26.74 22.87 18.99 22.30 29.56 28.69 32.63 35.31 35.60 37.13 38.14 39.18
42.30 36.32 43.56 43.88 35.23 31.10 29.21 32.13 38.73 35.67 36.89 36.10 34.27 32.96 30.53 30.24 29.66 30.00 29.01 31.25 35.86 35.28 31.04 30.77 29.65 26.10 30.45 36.04 37.46 34.03 29.83 31.20 26.40 21.85 21.52 20.65 20.98 30.85 31.21 33.55 35.60 35.39 36.82 37.59 38.85
40.31 38.67 43.53 41.70 30.97 29.10 30.65 34.60 35.97 34.60 35.04 34.33 33.53 34.85 32.66 30.20 28.19 31.17 32.26 35.75 36.51 33.60 31.06 31.23 26.17 22.57 26.30 30.75 32.00 30.19 33.70 29.99 27.80 25.73 20.96 20.47 22.15 30.40 29.90 30.98 32.62 32.44 32.29 33.72 36.87
37.48 35.33 37.92 37.65 33.92 29.70 29.65 31.99 31.96 35.84 34.81 35.27 33.90 32.85 30.72 28.52 30.39 29.69 31.14 35.52 35.16 34.34 41.39 35.83 26.81 26.16 23.76 26.71 28.70 26.56 27.69 28.67 27.17 20.97 21.92 21.54 22.07 25.35 27.76 30.15 30.09 29.97 30.33 31.40 32.69
36.79 36.17 37.47 32.47 32.71 30.42 31.64 31.13 29.53 30.46 34.27 33.64 31.53 31.81 29.30 26.50 27.31 27.65 29.48 31.38 34.23 36.39 33.28 31.35 25.26 24.05 25.94 27.40 28.50 28.81 28.52 28.20 26.46 25.75 22.65 23.41 24.14 26.65 28.12 29.52 29.90 30.62 32.17 33.33 33.62
37.11 35.35 34.81 32.74 32.50 30.90 32.11 30.55 31.55 31.41 32.01 30.52 30.94 31.64 30.74 27.68 29.21 26.21 28.59 27.23 27.04 31.20 28.39 29.65 25.51 25.39 24.09 26.89 26.38 26.82 27.12 28.11 27.91 24.65 25.01 25.54 25.48 29.56 29.15 30.50 30.88 30.97 32.75 33.23 33.60
38.38 38.64 38.02 35.43 31.10 30.80 30.70 31.75 32.92 33.77 34.20 34.16 33.05 31.44 30.36 31.76 33.16 31.76 32.32 32.25 30.03 27.67 28.46 27.24 25.63 23.91 21.65 25.13 25.79 23.33 24.94 26.84 26.81 26.99 27.08 25.64 28.62 30.17 29.87 32.13 31.37 31.27 32.81 33.26 33.59
MSLP
1021.29 1021.11 1020.87 1020.71 1020.58 1020.37 1020.10 1019.78 1019.48 1019.28 1019.10 1018.93 1018.60 1018.21 1017.87 1017.65 1017.50 1017.65 1017.61 1017.01 1016.85 1016.53 1016.46 1016.72 1016.67 1016.76 1016.83 1017.10 1017.11 1017.26 1017.68 1016.97 1015.64 1014.63 1013.49 1012.35 1012.10 1011.97 1012.11 1012.65 1013.22 1013.64 1014.06 1014.29 1014.87
1021.41 1021.18 1020.95 1020.80 1020.62 1020.28 1019.93 1019.63 1019.37 1019.16 1018.98 1018.67 1018.39 1018.12 1017.82 1017.59 1017.75 1017.61 1016.93 1016.45 1016.30 1016.28 1016.54 1016.90 1016.92 1017.05 1017.32 1017.35 1017.25 1017.35 1017.44 1016.72 1015.53 1014.37 1013.62 1012.99 1012.54 1012.24 1012.51 1012.93 1013.39 1013.87 1014.43 1014.63 1015.20
1021.48 1021.29 1020.98 1020.73 1020.43 1020.22 1019.96 1019.67 1019.33 1018.86 1018.58 1018.61 1018.57 1018.20 1017.69 1017.61 1017.77 1017.12 1016.50 1016.15 1015.91 1015.98 1016.40 1016.81 1017.00 1017.19 1017.58 1017.45 1017.31 1017.16 1016.78 1016.26 1015.34 1014.70 1013.93 1013.50 1012.99 1012.68 1012.57 1013.09 1012.55 1012.65 1014.02 1014.89 1015.38
1021.37 1021.20 1020.92 1020.59 1020.40 1020.23 1019.97 1019.40 1018.96 1018.87 1018.87 1018.79 1018.55 1018.20 1018.01 1018.04 1018.02 1017.04 1016.58 1016.02 1015.55 1015.57 1016.40 1016.72 1017.13 1017.30 1017.47 1017.52 1017.24 1017.24 1016.49 1016.06 1015.39 1014.99 1014.68 1014.04 1013.60 1013.08 1012.67 1012.08 1012.07 1012.23 1012.91 1014.36 1015.05
1021.29 1021.09 1020.86 1020.64 1020.47 1020.22 1019.67 1019.29 1019.14 1019.00 1018.79 1018.65 1018.54 1018.26 1018.15 1018.17 1017.69 1017.09 1016.60 1015.97 1015.24 1015.24 1016.22 1016.80 1017.22 1017.21 1017.22 1017.23 1017.29 1017.15 1016.72 1016.15 1015.54 1015.27 1014.88 1014.37 1013.78 1013.51 1012.57 1012.23 1012.23 1012.54 1013.41 1014.05 1014.92
1021.19 1020.98 1020.75 1020.63 1020.43 1019.96 1019.53 1019.23 1018.99 1018.77 1018.65 1018.55 1018.52 1018.31 1018.34 1018.16 1017.39 1017.21 1016.78 1016.15 1015.87 1015.95 1016.53 1016.97 1017.12 1016.98 1017.25 1017.01 1017.22 1016.74 1016.55 1016.18 1015.76 1015.42 1015.11 1014.71 1013.87 1013.50 1012.30 1012.52 1012.96 1013.15 1013.51 1013.95 1014.46
1021.05 1020.76 1020.56 1020.46 1020.24 1019.80 1019.42 1019.04 1018.88 1018.67 1018.57 1018.52 1018.51 1018.48 1018.39 1017.88 1017.35 1017.20 1016.87 1016.88 1016.48 1016.23 1016.63 1016.98 1016.97 1017.05 1017.15 1017.06 1016.76 1016.69 1016.90 1016.38 1015.76 1015.37 1014.99 1014.54 1013.95 1013.31 1012.76 1012.97 1013.44 1013.61 1013.89 1014.22 1014.57
1020.86 1020.61 1020.42 1020.22 1019.96 1019.69 1019.26 1018.93 1018.79 1018.47 1018.38 1018.43 1018.35 1018.46 1018.08 1017.23 1017.16 1017.15 1017.04 1016.95 1016.76 1016.57 1016.65 1016.77 1016.84 1017.24 1017.35 1017.20 1016.82 1016.95 1017.01 1016.73 1015.62 1015.16 1014.79 1014.61 1013.84 1013.05 1012.98 1013.21 1013.61 1013.97 1014.19 1014.34 1014.56
1020.79 1020.58 1020.28 1019.96 1019.80 1019.48 1019.14 1018.81 1018.55 1018.27 1018.20 1018.24 1018.51 1018.47 1018.00 1017.21 1017.26 1017.29 1017.24 1017.16 1017.05 1016.93 1016.93 1016.91 1017.01 1017.29 1017.47 1017.74 1017.54 1017.12 1017.06 1016.82 1016.30 1015.11 1014.72 1014.34 1013.81 1013.14 1013.14 1013.45 1013.72 1014.05 1014.25 1014.42 1014.75
1020.70 1020.56 1020.15 1019.95 1019.61 1019.29 1018.94 1018.48 1018.26 1018.20 1018.20 1018.26 1018.54 1018.89 1018.04 1017.92 1017.61 1017.35 1017.22 1017.21 1017.24 1017.22 1017.17 1017.30 1017.50 1017.56 1017.46 1017.63 1017.54 1017.54 1017.43 1016.90 1016.27 1015.25 1014.81 1014.40 1013.84 1013.20 1013.30 1013.60 1013.66 1014.08 1014.33 1014.42 1014.54
1020.65 1020.45 1020.10 1019.84 1019.42 1019.16 1018.97 1018.61 1018.91 1018.72 1018.48 1018.38 1018.52 1018.41 1018.12 1017.96 1017.71 1017.51 1017.31 1017.31 1017.30 1017.38 1017.71 1018.10 1018.04 1017.61 1017.54 1017.58 1017.82 1017.59 1017.11 1016.73 1015.96 1015.19 1015.04 1014.45 1013.84 1013.43 1013.27 1013.62 1013.79 1014.08 1014.30 1014.32 1014.49
1020.45 1020.24 1020.00 1019.76 1019.29 1019.16 1019.32 1019.39 1019.16 1019.33 1018.81 1018.11 1018.28 1018.28 1018.06 1018.11 1017.87 1017.57 1017.50 1017.70 1017.63 1017.78 1018.08 1018.45 1017.93 1017.74 1017.68 1017.51 1017.71 1017.78 1017.08 1016.49 1015.74 1014.89 1014.92 1014.36 1013.97 1013.17 1013.10 1013.06 1013.23 1013.52 1014.02 1014.28 1014.50
1020.28 1020.01 1019.80 1019.57 1019.15 1019.19 1019.25 1019.22 1019.13 1019.18 1019.44 1018.25 1017.99 1017.83 1017.78 1018.14 1017.95 1017.73 1017.74 1017.64 1017.83 1018.08 1018.20 1018.19 1017.72 1017.74 1017.64 1017.51 1017.66 1017.64 1017.21 1016.41 1015.83 1015.11 1014.78 1014.61 1014.17 1013.31 1012.82 1012.77 1012.75 1013.14 1013.53 1014.09 1014.26
1020.12 1019.75 1019.58 1019.28 1019.35 1019.34 1019.21 1019.08 1019.17 1019.32 1019.84 1018.28 1017.81 1017.16 1017.48 1017.62 1017.90 1017.80 1017.86 1018.06 1017.94 1018.07 1018.12 1017.95 1017.43 1017.59 1017.73 1017.60 1017.46 1017.23 1016.43 1016.05 1015.67 1015.76 1015.59 1015.03 1014.60 1013.59 1012.99 1012.76 1012.74 1012.87 1013.37 1013.62 1014.08
1019.92 1019.51 1019.40 1019.29 1019.52 1019.45 1019.31 1019.17 1019.29 1019.60 1019.69 1017.99 1017.46 1017.03 1017.36 1017.75 1017.68 1018.00 1018.00 1018.06 1018.08 1017.98 1018.24 1017.61 1017.37 1017.20 1017.03 1017.20 1017.05 1016.04 1015.67 1015.84 1015.81 1016.17 1016.30 1015.81 1015.69 1013.58 1013.36 1013.16 1012.91 1012.85 1013.09 1013.27 1013.81
1019.72 1019.31 1019.27 1019.58 1019.59 1019.34 1019.10 1019.28 1019.66 1020.25 1019.31 1017.54 1017.07 1017.02 1017.41 1017.40 1017.73 1017.99 1018.07 1018.32 1018.24 1018.08 1017.94 1017.57 1017.02 1016.67 1016.20 1016.40 1015.75 1015.49 1015.69 1016.18 1016.61 1017.14 1017.32 1016.19 1015.77 1014.13 1013.41 1012.72 1012.66 1012.55 1012.94 1013.26 1013.88
1019.41 1019.16 1019.17 1019.31 1019.38 1019.25 1019.24 1019.85 1020.54 1019.95 1018.50 1017.60 1017.04 1017.12 1017.17 1017.19 1017.41 1017.67 1017.83 1017.94 1018.02 1017.90 1017.46 1017.30 1016.45 1015.66 1015.26 1015.50 1015.56 1015.21 1016.28 1017.25 1017.95 1018.15 1017.45 1016.64 1016.25 1013.83 1012.99 1012.83 1013.05 1013.32 1013.41 1013.58 1014.00
1019.02 1018.97 1018.80 1019.07 1019.09 1019.33 1019.60 1020.30 1020.58 1019.03 1018.17 1017.20 1016.76 1016.56 1016.70 1016.26 1016.56 1017.12 1017.34 1017.31 1017.39 1017.59 1017.10 1016.98 1016.42 1015.73 1015.28 1015.24 1015.32 1015.65 1016.15 1017.00 1017.69 1018.26 1017.54 1017.10 1015.60 1013.62 1013.23 1013.24 1013.37 1013.65 1013.89 1014.06 1014.53
1018.86 1019.43 1019.18 1019.07 1019.15 1019.53 1020.07 1020.79 1019.34 1018.40 1017.62 1017.27 1016.60 1016.37 1016.16 1015.88 1016.19 1016.42 1016.61 1016.34 1016.19 1016.56 1016.92 1016.53 1016.16 1015.63 1015.40 1015.33 1015.64 1015.78 1016.19 1016.57 1017.16 1018.42 1017.99 1016.78 1014.95 1013.67 1013.56 1013.71 1013.77 1014.04 1014.40 1014.74 1015.16
1019.04 1019.36 1019.43 1019.06 1019.17 1019.88 1020.38 1019.89 1018.74 1017.72 1017.17 1017.02 1016.95 1016.41 1016.15 1015.59 1015.61 1015.78 1015.48 1015.32 1015.41 1015.42 1015.65 1015.98 1016.21 1016.06 1015.88 1015.69 1015.71 1015.87 1016.38 1016.63 1017.27 1017.96 1017.47 1016.35 1015.17 1013.98 1014.05 1014.07 1014.16 1014.72 1015.10 1015.39 1015.61
1018.96 1019.29 1019.70 1019.26 1019.30 1020.17 1020.44 1019.26 1018.00 1017.05 1016.88 1016.86 1016.70 1016.53 1016.17 1015.81 1015.33 1015.09 1014.97 1014.90 1014.90 1015.01 1015.10 1015.38 1015.75 1016.50 1016.28 1016.20 1016.19 1016.24 1016.23 1016.59 1017.11 1017.56 1017.06 1016.07 1015.12 1014.25 1014.21 1014.23 1014.61 1015.17 1015.47 1015.59 1015.80
1018.92 1019.54 1019.84 1019.70 1019.96 1020.26 1019.85 1018.30 1017.21 1016.68 1016.54 1016.51 1016.43 1016.30 1016.03 1015.63 1015.21 1014.83 1014.68 1014.49 1014.48 1014.59 1014.95 1015.21 1015.77 1016.80 1016.87 1016.44 1016.11 1015.96 1015.98 1015.90 1017.45 1016.90 1016.51 1015.79 1015.30 1014.33 1014.38 1014.51 1014.92 1015.45 1015.64 1015.77 1015.89
1019.05 1019.46 1019.82 1019.88 1019.81 1019.77 1018.77 1017.85 1016.99 1016.53 1016.33 1016.34 1016.19 1015.97 1015.74 1015.62 1015.43 1014.76 1014.51 1014.24 1014.35 1014.52 1014.65 1015.09 1015.68 1016.90 1016.85 1016.28 1015.88 1015.92 1015.62 1015.68 1016.15 1016.46 1015.94 1015.27 1015.31 1014.84 1014.94 1015.22 1015.56 1015.81 1016.10 1016.16 1016.26
1019.22 1019.35 1019.94 1020.06 1019.30 1018.85 1018.36 1017.43 1016.67 1016.13 1016.01 1015.97 1015.95 1015.84 1015.80 1015.50 1015.28 1015.07 1014.70 1014.43 1014.51 1014.53 1014.62 1014.97 1015.28 1015.46 1015.46 1014.89 1015.17 1015.55 1014.72 1015.23 1015.96 1016.13 1014.93 1014.67 1015.02 1015.29 1015.51 1015.67 1016.10 1016.44 1016.54 1016.62 1016.92
1018.73 1018.14 1017.71 1018.87 1018.59 1018.11 1017.75 1017.13 1016.49 1016.13 1015.99 1015.82 1015.85 1015.90 1016.04 1015.91 1015.45 1015.35 1015.18 1014.99 1014.69 1014.88 1014.94 1015.13 1015.30 1015.16 1014.80 1014.45 1014.28 1014.05 1013.99 1014.40 1015.05 1014.46 1014.19 1014.32 1014.69 1015.19 1015.46 1015.79 1016.28 1016.60 1016.77 1016.90 1017.17
1018.12 1017.71 1017.71 1017.59 1017.41 1017.56 1017.37 1016.76 1016.18 1015.81 1015.87 1015.75 1015.91 1015.80 1015.98 1016.02 1015.65 1015.67 1015.68 1015.60 1015.57 1015.36 1015.36 1015.38 1015.36 1015.13 1014.71 1014.26 1013.97 1013.75 1013.66 1013.79 1013.79 1013.74 1013.88 1014.00 1014.72 1014.82 1015.38 1015.88 1016.47 1016.86 1016.96 1017.19 1017.38
1017.31 1016.71 1016.43 1016.86 1017.12 1017.07 1016.55 1015.96 1015.73 1015.62 1015.47 1015.44 1015.61 1015.89 1015.85 1015.58 1015.51 1015.61 1015.75 1015.78 1015.77 1015.95 1015.94 1015.90 1015.72 1015.58 1014.86 1014.11 1013.55 1013.43 1013.01 1012.96 1012.96 1013.22 1013.66 1014.04 1014.22 1014.93 1015.65 1016.01 1016.39 1016.84 1016.97 1017.16 1017.34
Wind_Speed
12 11 11 11 11 11 11 11 11 11 11 13 16 14 13 11 6 1 5 8 6 12 13 6 1 1 2 2 1 3 0 4 6 6 4 2 6 2 2 7 1 4 2 2 17
11 12 11 10 11 12 12 12 13 12 12 14 18 16 16 6 1 4 8 10 11 10 3 4 2 1 0 2 2 3 3 7 4 2 2 6 3 6 5 4 3 2 5 8 15
11 11 11 12 12 13 13 13 13 14 14 13 15 15 14 2 2 4 9 13 10 11 5 3 2 3 3 1 3 3 5 4 4 3 3 4 5 5 3 3 8 13 10 12 15
12 12 12 13 13 13 13 14 15 14 12 11 13 15 8 2 3 2 16 18 15 9 5 3 3 3 6 4 2 3 6 4 6 3 6 7 7 7 6 7 5 5 17 15 16
13 13 12 13 13 13 13 14 14 13 11 10 11 14 4 3 5 6 17 15 7 8 9 5 5 3 5 5 2 3 2 5 9 5 5 6 6 6 7 5 2 12 16 16 14
13 13 12 13 13 13 13 14 14 13 10 9 9 10 1 4 3 7 9 6 6 4 4 5 5 4 4 4 6 2 4 9 6 6 5 4 7 1 5 4 6 11 14 14 16
13 12 12 13 13 13 13 14 14 10 8 7 8 2 1 8 4 5 6 4 4 1 4 3 3 1 1 3 4 4 6 5 5 4 4 1 8 7 3 4 6 7 8 11 10
12 12 12 12 13 13 13 14 13 7 4 3 6 1 4 2 4 4 6 4 4 3 3 2 4 3 2 6 1 5 2 2 5 6 7 5 9 11 4 8 9 7 6 9 8
11 12 11 12 12 12 14 14 12 5 3 2 2 2 6 5 3 3 2 3 2 3 2 3 2 2 3 1 4 3 3 6 7 6 5 8 4 6 4 6 7 6 7 7 6
10 11 11 12 11 11 13 14 7 4 2 2 0 1 2 5 4 4 2 2 1 1 2 4 3 2 4 5 6 4 2 3 6 4 5 4 7 9 4 6 7 5 6 7 8
11 11 11 12 10 10 7 5 6 4 2 4 3 2 4 5 2 3 2 2 1 1 1 3 1 6 12 12 9 6 4 6 4 8 3 8 5 11 4 4 6 7 8 8 6
11 12 11 11 10 10 2 1 1 2 7 4 1 3 3 1 2 2 2 2 2 1 2 2 4 7 6 11 7 9 5 6 5 6 5 5 10 9 4 5 6 7 7 7 5
12 12 13 11 12 2 3 1 2 2 0 4 4 4 3 3 3 2 1 2 1 2 6 5 2 5 6 7 13 8 6 4 6 1 2 3 5 4 2 3 3 5 5 6 9
12 12 12 11 3 2 0 3 3 2 5 5 4 4 4 4 1 2 2 1 2 3 3 6 2 9 5 6 11 11 8 5 5 4 4 3 5 5 5 7 6 7 6 8 8
13 11 8 3 0 1 1 4 4 4 5 3 2 2 2 3 2 2 1 1 4 2 2 3 3 6 8 5 8 5 5 5 1 4 3 1 3 7 1 6 8 8 9 8 7
14 8 5 2 2 3 4 4 4 8 7 3 3 3 2 4 2 2 1 1 3 4 5 5 3 4 6 8 8 4 6 4 3 3 1 4 5 6 6 7 5 5 6 8 7
12 9 2 2 1 3 3 4 6 5 3 3 3 3 3 4 4 6 5 5 3 2 4 2 4 3 3 5 4 3 4 2 3 2 6 1 4 10 2 1 2 3 5 5 7
10 2 5 2 2 3 3 6 4 5 5 3 2 3 5 5 4 6 3 4 8 4 1 2 0 4 3 2 3 4 5 5 5 4 4 3 6 6 1 3 4 3 5 3 5
3 2 3 1 4 3 5 4 8 6 2 4 6 2 3 2 3 4 6 3 7 11 2 1 3 2 4 3 2 3 2 3 5 2 3 3 6 4 1 5 6 6 4 5 5
2 2 2 3 5 5 4 6 4 4 1 1 2 1 3 3 2 3 3 3 2 6 5 6 2 3 1 4 7 1 3 2 3 2 4 4 3 5 1 2 5 6 5 5 5
2 3 2 1 4 5 3 7 5 6 4 4 2 4 5 4 2 3 2 1 2 2 3 5 3 1 3 3 5 2 2 4 3 4 4 4 6 5 2 1 6 5 4 5 5
2 1 2 1 3 1 3 6 3 3 2 4 2 4 4 3 4 3 2 4 3 3 5 3 3 3 1 5 3 2 2 1 3 4 4 1 4 2 2 4 6 5 5 4 5
3 3 1 1 3 3 5 5 4 3 4 3 4 6 2 3 3 3 1 0 1 3 3 4 1 3 8 7 4 6 5 4 2 4 6 5 4 2 4 7 5 8 6 5 5
2 2 1 1 1 3 3 5 4 3 3 3 3 1 2 3 3 4 3 1 1 1 2 2 3 5 7 4 5 6 6 7 8 3 4 4 5 3 5 7 5 6 6 7 7
2 5 4 4 5 5 4 2 3 3 3 2 2 3 2 3 3 2 2 5 1 5 2 4 4 3 5 4 3 4 4 6 8 7 2 6 6 6 6 7 6 6 6 8 7
4 4 1 1 1 7 4 5 6 3 5 4 4 3 4 5 4 3 0 1 1 5 3 3 3 3 2 0 1 4 2 5 3 3 5 7 5 5 3 6 6 6 7 7 6
2 2 2 2 2 5 6 6 6 5 4 3 4 1 4 5 4 3 2 2 3 1 2 2 2 2 3 3 2 1 4 3 1 2 6 5 7 7 4 6 6 7 6 6 4
Wind_Direction
351 350 354 348 340 335 329 328 332 336 341 347 345 337 327 325 317 89 248 224 213 264 278 319 328 331 56 315 253 123 9 228 201 176 238 212 195 49 32 120 203 172 145 272 133
334 336 339 334 332 331 331 335 336 331 337 348 348 345 330 319 341 269 257 272 260 267 271 280 292 135 25 266 266 154 162 216 238 232 298 306 251 177 155 144 211 163 51 121 137
315 319 323 327 333 329 330 335 337 340 340 341 342 343 343 87 8 251 321 326 278 247 205 179 277 216 218 175 229 195 211 207 275 295 39 342 316 311 154 250 206 193 160 158 154
310 312 315 326 324 323 328 342 346 336 321 320 333 345 354 13 301 308 332 316 297 235 171 194 224 206 199 205 241 271 236 232 270 69 352 325 308 318 207 225 307 234 153 154 165
311 305 308 315 312 318 335 342 336 328 318 312 326 339 335 296 259 323 327 314 318 136 178 180 190 202 201 168 213 252 293 301 259 325 305 308 275 246 258 295 53 131 153 163 169
303 298 307 307 311 321 333 338 334 326 312 302 321 336 358 281 318 322 325 330 3 112 142 146 219 219 280 194 168 235 231 244 280 292 305 280 277 285 284 126 125 156 169 168 172
300 301 305 308 315 322 328 337 329 318 300 296 316 355 281 251 329 333 14 342 333 60 154 212 184 80 360 281 236 218 313 332 262 250 252 332 298 230 248 137 160 173 171 167 172
310 309 306 311 318 320 326 331 324 321 292 293 324 94 247 273 280 15 343 329 15 27 95 155 158 169 263 324 308 153 158 226 275 174 245 139 269 286 208 165 186 181 174 178 173
318 315 314 320 317 324 323 319 314 312 275 345 48 77 279 329 8 317 8 330 356 36 79 97 175 209 121 131 316 194 228 230 319 220 202 178 257 260 189 190 190 196 186 179 163
329 320 328 322 324 329 323 308 286 329 314 113 41 335 332 313 299 326 313 316 315 149 71 40 57 232 198 186 219 236 221 242 208 277 211 206 250 281 226 207 211 197 196 190 189
340 332 329 326 333 342 355 5 12 347 31 222 260 231 299 298 256 309 333 308 171 97 121 32 252 231 242 219 269 300 209 224 234 235 256 215 225 253 238 232 201 196 206 212 197
342 338 330 320 330 331 79 131 196 187 311 220 242 271 265 197 290 257 337 229 125 135 334 155 247 258 253 223 220 284 259 247 287 252 177 217 234 248 205 227 209 209 211 205 180
336 335 326 317 321 39 160 236 120 112 266 287 202 199 212 160 325 313 24 299 140 222 196 223 284 166 229 210 204 242 245 234 210 316 199 117 291 233 252 235 195 214 200 187 201
329 331 321 319 42 290 240 119 113 92 54 263 241 252 145 176 175 127 352 338 231 253 228 251 183 179 180 238 216 226 215 239 217 107 205 137 256 236 232 249 221 238 211 214 197
327 329 322 334 294 144 138 118 111 60 22 262 170 81 94 187 131 172 102 304 250 270 136 264 192 235 224 217 210 201 171 200 187 138 69 256 80 255 111 253 252 237 234 226 202
325 327 323 85 119 260 123 95 52 46 267 328 153 204 174 198 216 90 80 62 338 245 256 265 265 221 179 243 221 228 85 57 49 81 37 237 141 264 188 201 234 228 223 214 197
323 307 225 165 165 144 112 51 36 124 300 264 257 177 230 212 199 186 194 204 225 231 217 263 248 261 214 155 175 69 106 31 14 359 221 273 80 243 271 246 269 313 304 220 184
327 291 184 181 129 125 60 54 96 242 243 319 286 237 219 164 221 183 213 253 219 245 152 208 294 9 1 106 187 167 154 158 191 203 249 347 212 250 317 344 327 301 269 153 156
47 328 105 261 136 70 75 63 215 206 248 309 320 290 285 238 190 177 213 237 179 187 199 143 346 331 44 57 42 165 164 164 93 110 54 222 273 334 37 4 23 29 122 136 115
143 121 15 135 120 68 76 237 240 217 227 144 282 268 288 289 243 199 205 196 161 173 188 208 63 345 88 55 345 140 173 110 39 251 236 275 258 218 19 18 57 59 96 106 108
77 87 285 105 75 58 197 230 260 235 204 184 245 285 259 292 272 258 244 230 175 191 191 152 154 227 4 190 200 159 139 73 133 179 252 143 263 212 245 188 112 104 116 121 114
140 110 316 350 82 99 231 205 238 261 169 257 226 226 233 287 277 282 263 217 188 177 178 179 119 71 272 308 311 149 172 145 151 239 234 214 274 3 74 96 121 107 108 110 118
165 127 354 66 183 232 270 270 229 228 212 205 250 212 207 253 290 235 234 129 170 208 188 166 174 99 337 353 19 284 179 217 20 59 240 134 236 66 91 80 82 108 86 75 86
141 145 13 44 266 190 243 249 253 216 246 201 250 216 311 266 213 289 298 229 282 243 187 129 166 174 197 190 136 213 232 181 168 252 181 208 147 155 141 129 114 96 96 84 76
208 235 169 200 245 194 161 278 228 257 228 186 256 215 214 281 300 242 292 321 268 352 129 152 212 208 226 241 201 218 207 172 190 242 164 179 121 189 184 156 149 131 105 87 73
203 164 59 204 159 149 188 242 206 229 190 230 209 197 191 219 216 271 269 31 287 327 22 339 218 161 199 348 199 177 165 184 194 112 66 115 101 172 117 109 113 131 121 108 99
258 335 131 146 164 134 214 218 217 154 220 239 211 198 229 234 198 221 215 245 248 282 300 36 137 82 255 316 303 310 204 201 141 114 150 133 208 151 145 139 155 160 149 134 117